Location: Kumla
(59.1265°N, 15.1401°E)
Time: 06:28:31
(UTC+01:00)

Transit 4A - Pass Details

Date: 10 December 2023
Orbit: 870 x 973 km, 66.8° (Epoch: 02 March)

Event Time Altitude Azimuth Distance (km) Brightness Sun altitude
Rises 19:49:53 0° 217° (SW) 3,660 11.3 -34.5°
Reaches altitude 10° 19:52:27 10° 216° (SW) 2,710 10.5 -34.8°
Enters shadow 19:54:41 23° 213° (SSW) 1,920 9.6 -35.1°
